This demonstration page uses our WeatherBlox Daily Observations layout. Learn more.

Left ArrowRight Arrow

40.92501, -98.34201

Hourly Observations for January 10, 2015

Temp ( °F °C ) Dew Point ( °F °C ) Humidity (%) Winds ( mph kmh ) Pressure ( in mb ) Visibility ( mi km ) Precip ( " mm )
12:53 am 00:53 Clear 8 -13.3 1 -17.2 73 73 S 9 15 30.40 1030 10 16 0.00 0.00
1:53 am 01:53 Clear 13 -10.6 4 -15.6 67 67 S 13 20 30.36 1028 10 16 0.00 0.00
2:53 am 02:53 Clear 14 -10 4 -15.6 64 64 S 10 17 30.33 1027 10 16 0.00 0.00
3:53 am 03:53 Clear 14 -10 4 -15.6 64 64 S 10 17 30.29 1026 10 16 0.00 0.00
4:53 am 04:53 Clear 14 -10 6 -14.4 71 71 S 15 24 30.24 1024 10 16 0.00 0.00
5:53 am 05:53 Clear 12 -11.1 6 -14.4 77 77 S 9 15 30.22 1023 10 16 0.00 0.00
6:53 am 06:53 Clear 15 -9.4 9 -12.8 77 77 S 17 28 30.19 1022 10 16 0.00 0.00
7:53 am 07:53 Clear 17 -8.3 10 -12.2 74 74 S 16 26 30.18 1022 10 16 0.00 0.00
8:53 am 08:53 Sunny 20 -6.7 12 -11.1 71 71 SSW 18 30 30.16 1022 10 16 0.00 0.00
9:53 am 09:53 Sunny 24 -4.4 14 -10 65 65 SSW 23 37 30.15 1021 10 16 0.00 0.00
10:53 am 10:53 Sunny 29 -1.7 17 -8.3 61 61 SW 24 39 30.14 1021 10 16 0.00 0.00
11:53 am 11:53 Sunny 31 -0.6 20 -6.7 64 64 SW 20 31 30.11 1020 10 16 0.00 0.00
12:53 pm 12:53 Sunny 34 1.1 21 -6.1 59 59 SW 18 30 30.09 1019 10 16 0.00 0.00
1:53 pm 13:53 Sunny 35 1.7 22 -5.6 59 59 SW 17 28 30.08 1019 10 16 0.00 0.00
2:53 pm 14:53 Sunny 37 2.8 24 -4.4 59 59 WSW 14 22 30.07 1018 10 16 0.00 0.00
3:53 pm 15:53 Sunny 36 2.2 25 -3.9 64 64 W 9 15 30.09 1019 10 16 0.00 0.00
4:53 pm 16:53 Sunny 35 1.7 25 -3.9 67 67 W 5 7 30.10 1019 10 16 0.00 0.00
5:53 pm 17:53 Clear 29 -1.7 23 -5 78 78 Calm 30.13 1020 10 16 0.00 0.00
6:53 pm 18:53 Clear 27 -2.8 23 -5 85 85 NNW 5 7 30.14 1021 10 16 0.00 0.00
7:53 pm 19:53 Clear 23 -5 20 -6.7 88 88 SE 3 6 30.15 1021 10 16 0.00 0.00
8:53 pm 20:53 Clear 22 -5.6 20 -6.7 92 92 Calm 30.16 1021 10 16 0.00 0.00
9:53 pm 21:53 Clear 18 -7.8 16 -8.9 92 92 NNE 7 11 30.17 1022 10 16 0.00 0.00
10:53 pm 22:53 Clear 18 -7.8 14 -10 84 84 NE 6 9 30.16 1022 10 16 0.00 0.00
11:53 pm 23:53 Clear 19 -7.2 15 -9.4 84 84 NE 8 13 30.15 1021 10 16 0.00 0.00

Powered by AerisWeather